When you browse on this site, cookies collect data to enhance your experience and personalize the content and advertising you see.
Visit our Privacy Policy to learn more. By continuing to use the site, you agree to this use of cookies and data.
  • In Hungary
  • List of Countries
  • For 7 days
  • Water Temperature
  • Satellite Maps
  • Weather Map
  • News
  • Weather Widgets
  • user-avatar
    Login

    Hourly Weather Catanzaro

    Today, 18 March, Monday

    Time Temperature Precipitation Wind Pressure Humidity
    00:00 +12°C° 0 mm 2 mps 743 mmHg 59%
    01:00 +10°C° 0 mm 2 mps 743 mmHg 57%
    02:00 +10°C° 0 mm 2 mps 742 mmHg 56%
    03:00 +10°C° 0 mm 2 mps 742 mmHg 55%
    04:00 +10°C° 0 mm 2 mps 742 mmHg 53%
    05:00 +10°C° 0 mm 2 mps 742 mmHg 56%
    06:00 +12°C° 0 mm 2 mps 742 mmHg 58%
    07:00 +11°C° 0 mm 3 mps 742 mmHg 61%
    08:00 +13°C° 0 mm 3 mps 742 mmHg 55%
    09:00 +16°C° 0 mm 3 mps 743 mmHg 50%
    10:00 +18°C° 0 mm 3 mps 743 mmHg 45%
    11:00 +19°C° 0 mm 3 mps 743 mmHg 43%
    12:00 +20°C° 0 mm 3 mps 743 mmHg 40%
    13:00 +21°C° 0 mm 4 mps 743 mmHg 39%
    14:00 +21°C° 0 mm 4 mps 743 mmHg 39%
    15:00 +20°C° 0 mm 3 mps 743 mmHg 40%
    16:00 +20°C° 0 mm 3 mps 742 mmHg 41%
    17:00 +18°C° 0 mm 3 mps 743 mmHg 47%
    18:00 +16°C° 0 mm 3 mps 743 mmHg 53%
    19:00 +13°C° 0 mm 2 mps 743 mmHg 59%
    20:00 +13°C° 0 mm 2 mps 743 mmHg 53%
    21:00 +13°C° 0 mm 2 mps 743 mmHg 47%
    22:00 +13°C° 0 mm 2 mps 743 mmHg 41%
    23:00 +13°C° 0 mm 2 mps 743 mmHg 42%

    Tomorrow, 19 March, Tuesday

    Time Temperature Precipitation Wind Pressure Humidity
    00:00 +13°C° 0 mm 2 mps 743 mmHg 43%
    01:00 +13°C° 0 mm 2 mps 743 mmHg 43%
    02:00 +13°C° 0.1 mm 2 mps 743 mmHg 48%
    03:00 +12°C° 0.1 mm 2 mps 743 mmHg 53%
    04:00 +12°C° 0.1 mm 2 mps 743 mmHg 59%
    05:00 +13°C° 0 mm 2 mps 743 mmHg 60%
    06:00 +13°C° 0 mm 2 mps 743 mmHg 61%
    07:00 +13°C° 0 mm 1 mps 743 mmHg 62%
    08:00 +16°C° 0 mm 1 mps 743 mmHg 55%
    09:00 +19°C° 0 mm 1 mps 743 mmHg 47%
    10:00 +21°C° 0 mm 1 mps 744 mmHg 40%
    11:00 +21°C° 0 mm 2 mps 744 mmHg 40%
    12:00 +21°C° 0 mm 2 mps 744 mmHg 40%
    13:00 +21°C° 0 mm 2 mps 744 mmHg 40%
    14:00 +21°C° 0 mm 2 mps 744 mmHg 44%
    15:00 +20°C° 0 mm 2 mps 744 mmHg 48%
    16:00 +19°C° 0 mm 2 mps 743 mmHg 52%
    17:00 +17°C° 0.1 mm 2 mps 744 mmHg 64%
    18:00 +14°C° 0.1 mm 1 mps 744 mmHg 76%
    19:00 +11°C° 0.1 mm 0 mps 744 mmHg 87%
    20:00 +12°C° 0 mm 1 mps 745 mmHg 86%
    21:00 +12°C° 0 mm 1 mps 745 mmHg 85%
    22:00 +12°C° 0 mm 2 mps 745 mmHg 84%
    23:00 +12°C° 0 mm 2 mps 746 mmHg 83%

    Day after tomorrow, 20 March, Wednesday

    Time Temperature Precipitation Wind Pressure Humidity
    00:00 +12°C° 0 mm 2 mps 746 mmHg 81%
    01:00 +12°C° 0 mm 2 mps 746 mmHg 80%
    02:00 +11°C° 0 mm 3 mps 746 mmHg 80%
    03:00 +11°C° 0 mm 3 mps 746 mmHg 80%
    04:00 +11°C° 0 mm 3 mps 746 mmHg 80%
    05:00 +11°C° 0 mm 3 mps 746 mmHg 80%
    06:00 +12°C° 0 mm 3 mps 746 mmHg 81%
    07:00 +12°C° 0 mm 3 mps 747 mmHg 81%
    08:00 +13°C° 0.1 mm 3 mps 747 mmHg 75%
    09:00 +16°C° 0.1 mm 3 mps 748 mmHg 70%
    10:00 +17°C° 0.1 mm 3 mps 748 mmHg 64%
    11:00 +18°C° 0 mm 4 mps 748 mmHg 60%
    12:00 +18°C° 0 mm 4 mps 748 mmHg 55%
    13:00 +19°C° 0 mm 5 mps 748 mmHg 51%
    14:00 +19°C° 0 mm 5 mps 748 mmHg 51%
    15:00 +19°C° 0 mm 5 mps 747 mmHg 52%
    16:00 +17°C° 0 mm 5 mps 747 mmHg 53%
    17:00 +16°C° 0 mm 5 mps 747 mmHg 60%
    18:00 +14°C° 0 mm 4 mps 748 mmHg 67%
    19:00 +13°C° 0 mm 4 mps 748 mmHg 75%
    20:00 +13°C° 0 mm 4 mps 748 mmHg 74%
    21:00 +12°C° 0 mm 5 mps 748 mmHg 73%
    22:00 +12°C° 0 mm 5 mps 749 mmHg 72%
    23:00 +12°C° 0 mm 5 mps 749 mmHg 70%

    21 March, Thursday

    Time Temperature Precipitation Wind Pressure Humidity
    00:00 +12°C° 0 mm 4 mps 749 mmHg 68%
    01:00 +12°C° 0 mm 4 mps 749 mmHg 67%
    02:00 +12°C° 0 mm 4 mps 748 mmHg 65%
    03:00 +12°C° 0 mm 5 mps 748 mmHg 63%
    04:00 +13°C° 0 mm 5 mps 748 mmHg 61%
    05:00 +13°C° 0 mm 5 mps 748 mmHg 61%
    06:00 +13°C° 0 mm 6 mps 748 mmHg 61%
    07:00 +13°C° 0 mm 6 mps 748 mmHg 61%
    08:00 +15°C° 0 mm 6 mps 749 mmHg 58%
    09:00 +16°C° 0 mm 7 mps 749 mmHg 54%
    10:00 +17°C° 0 mm 7 mps 749 mmHg 51%
    11:00 +18°C° 0 mm 7 mps 749 mmHg 50%
    12:00 +18°C° 0 mm 7 mps 749 mmHg 49%
    13:00 +18°C° 0 mm 7 mps 749 mmHg 48%
    14:00 +18°C° 0 mm 7 mps 749 mmHg 49%
    15:00 +19°C° 0 mm 6 mps 749 mmHg 50%
    16:00 +17°C° 0 mm 6 mps 749 mmHg 51%
    17:00 +16°C° 0 mm 6 mps 749 mmHg 56%
    18:00 +15°C° 0 mm 5 mps 749 mmHg 60%
    19:00 +14°C° 0 mm 5 mps 749 mmHg 65%
    20:00 +14°C° 0 mm 5 mps 749 mmHg 65%
    21:00 +13°C° 0 mm 5 mps 750 mmHg 66%
    22:00 +13°C° 0 mm 5 mps 750 mmHg 66%
    23:00 +13°C° 0 mm 5 mps 750 mmHg 64%

    22 March, Friday

    Time Temperature Precipitation Wind Pressure Humidity
    00:00 +13°C° 0 mm 5 mps 750 mmHg 63%
    01:00 +13°C° 0 mm 5 mps 750 mmHg 61%
    02:00 +12°C° 0 mm 4 mps 750 mmHg 62%
    03:00 +12°C° 0 mm 4 mps 750 mmHg 64%
    04:00 +11°C° 0 mm 4 mps 750 mmHg 65%
    05:00 +12°C° 0 mm 4 mps 750 mmHg 64%
    06:00 +12°C° 0 mm 4 mps 750 mmHg 64%
    07:00 +12°C° 0 mm 4 mps 750 mmHg 64%
    08:00 +14°C° 0 mm 5 mps 751 mmHg 58%
    09:00 +15°C° 0 mm 5 mps 751 mmHg 52%
    10:00 +17°C° 0 mm 6 mps 751 mmHg 45%
    11:00 +17°C° 0 mm 5 mps 751 mmHg 43%
    12:00 +19°C° 0 mm 5 mps 751 mmHg 42%
    13:00 +20°C° 0 mm 5 mps 751 mmHg 40%
    14:00 +19°C° 0 mm 4 mps 751 mmHg 42%
    15:00 +18°C° 0 mm 4 mps 751 mmHg 44%
    16:00 +18°C° 0 mm 3 mps 750 mmHg 46%
    17:00 +16°C° 0 mm 3 mps 750 mmHg 52%
    18:00 +13°C° 0 mm 3 mps 750 mmHg 58%
    19:00 +12°C° 0 mm 3 mps 750 mmHg 65%
    20:00 +13°C° 0 mm 2 mps 751 mmHg 62%
    21:00 +13°C° 0 mm 2 mps 751 mmHg 59%
    22:00 +13°C° 0 mm 2 mps 751 mmHg 56%
    23:00 +13°C° 0 mm 2 mps 751 mmHg 60%

    23 March, Saturday

    Time Temperature Precipitation Wind Pressure Humidity
    00:00 +12°C° 0 mm 2 mps 751 mmHg 64%
    01:00 +12°C° 0 mm 2 mps 751 mmHg 68%
    02:00 +12°C° 0 mm 2 mps 751 mmHg 70%
    03:00 +12°C° 0 mm 2 mps 751 mmHg 73%
    04:00 +10°C° 0 mm 2 mps 751 mmHg 75%
    05:00 +12°C° 0 mm 2 mps 751 mmHg 71%
    06:00 +12°C° 0 mm 2 mps 751 mmHg 67%
    07:00 +13°C° 0 mm 2 mps 751 mmHg 62%
    08:00 +15°C° 0 mm 2 mps 751 mmHg 54%
    09:00 +17°C° 0 mm 2 mps 752 mmHg 45%
    10:00 +20°C° 0 mm 3 mps 752 mmHg 37%
    11:00 +20°C° 0 mm 3 mps 752 mmHg 38%
    12:00 +21°C° 0 mm 3 mps 752 mmHg 38%
    13:00 +21°C° 0 mm 3 mps 752 mmHg 38%
    14:00 +20°C° 0 mm 2 mps 751 mmHg 41%
    15:00 +20°C° 0 mm 2 mps 751 mmHg 43%
    16:00 +19°C° 0 mm 2 mps 751 mmHg 45%
    17:00 +18°C° 0 mm 1 mps 751 mmHg 54%
    18:00 +15°C° 0 mm 1 mps 751 mmHg 62%
    19:00 +11°C° 0 mm 0 mps 751 mmHg 71%
    20:00 +12°C° 0 mm 1 mps 751 mmHg 71%
    21:00 +12°C° 0 mm 1 mps 751 mmHg 70%
    22:00 +12°C° 0 mm 2 mps 752 mmHg 69%
    23:00 +12°C° 0 mm 2 mps 752 mmHg 70%
    Show more